ONEWEB-0592

operational
NORAD ID: 54658 Int'l Des: 2022-166 Owner: ONEWEBN Country: UK Constellation: oneweb
LEOCIRCULARPOLARONEWEB_TYPE

About ONEWEB-0592

Description loading...

Live Position

Loading 3D Globe...

Upcoming Passes

Altitude History

Altitude vs Time

uPlot chart will show altitude changes over time

Two-Line Element Set

1 54658U 22166S 25251.87249757 .00000019 00000-0 14677-4 0 9998
2 54658 87.9225 300.0855 0002104 96.0592 264.0782 13.21823025134275
Epoch: Sep 8, 2025 • Age: 13 hours

Current Status

Altitude 1185.0 km
Velocity 7.27 km/s
Sub-Earth Point 52.63°N, 25.94°W
Launch Date Dec 8, 2022
Age 2.7 years
Type internet

Technical Details

Classification Payload
Mass 148.00 kg
Dry Mass 140.00 kg
Total Mass 148.00 kg
Length 1.30 m
Diameter 1.00 m
Span 5.00 m
Shape Trapezoid+2 pan
Manufacturer ONEWUS
Bus Type ARROW
Phase Status In Orbit
Owner/State ONEWEBN/UK

Large Constellations

Loading constellations...